Flag for Germany Weather past 2 weeks in Nienburg (Weser), Lower Saxony, Germany

Now
55 °F

Cool.


Feels Like: 55 °F
Forecast: 47 / 59 °F
Wind: 5 mph from Southwest

Location: Wunstorf Airport

Current Time: Oct 25, 2014 at 5:24:06 PM

Latest Report: Oct 25, 2014 at 4:20 PM


Visibility: 4 mi

Pressure: 30.09 "Hg

Humidity: 88%

Dew point: 52 °F

Location of Nienburg (Weser)Location

Historic Weather in Nienburg (Weser) — Graph

°F

Nienburg (Weser) temperature yesterday

Maximum temperature yesterday: 57 °F (at 12:20 PM)
Minimum temperature yesterday: 48 °F (at 4:20 AM)
Average temperature yesterday: 53 °F

Past Weeks' High & Low Weather Summary

 TemperatureHumidityPressure
High73 °F (Oct 19, 2:20 PM)100% (Oct 11, 3:20 AM)30.18 "Hg (Oct 11, 3:20 AM)
Low46 °F (Oct 22, 3:20 AM)49% (Oct 14, 3:20 PM)29.42 "Hg (Oct 21, 6:20 PM)
Average55 °F86%29.89 "Hg
* Reported Oct 10 3:20 PM — Oct 25 3:20 PM, Nienburg (Weser), Weather by CustomWeather, © 2014

Note: Actual official high and low records may vary slightly from our data, if they occured in-between our weather recording intervals... More about our weather records

Advertising

Nienburg (Weser) weather history for previous 24 hours

 ConditionsComfort  
Time TempWeatherWind HumidityBarometerVisibility
3:20 PM
Oct 25
55 °FCool.9 mph88%30.09 "Hg4 mi
2:20 PM55 °FCool.7 mph88%30.07 "Hg5 mi
1:20 PM54 °FCool.8 mph94%30.07 "Hg4 mi
12:20 PM54 °FCool.9 mph88%30.07 "Hg5 mi
11:20 AM54 °FCool.8 mph88%30.07 "Hg4 mi
10:20 AM52 °FCool.7 mph88%30.07 "Hg4 mi
9:20 AM52 °FCool.5 mph88%30.04 "Hg4 mi
8:20 AM50 °FCool.2 mph94%30.04 "Hg4 mi
7:20 AM50 °FCool.6 mph94%30.04 "Hg2 mi
6:20 AM50 °FCool.6 mph94%30.04 "Hg6 mi
5:20 AM52 °FCool.8 mph82%30.01 "HgN/A
4:20 AM52 °FCool.7 mph82%30.04 "HgN/A
3:20 AM52 °FCool.8 mph77%30.04 "HgN/A
2:20 AM52 °FCool.7 mph82%30.04 "HgN/A
1:20 AM52 °FCool.6 mph77%30.07 "HgN/A
12:20 AM52 °FCool.6 mph77%30.07 "HgN/A
11:20 PM
Oct 24
52 °FCool.6 mph77%30.07 "HgN/A
10:20 PM52 °FCool.7 mph77%30.07 "HgN/A
9:20 PM52 °FCool.6 mph82%30.07 "HgN/A
8:20 PM52 °FCool.7 mph82%30.07 "HgN/A
7:20 PM52 °FCool.6 mph82%30.07 "HgN/A
6:20 PM54 °FCool.5 mph77%30.09 "HgN/A
5:20 PM55 °FCool.3 mph77%30.09 "HgN/A
Weather by CustomWeather, © 2014

See weather overviewHow to use our weather pages